This is the latest recevied weather packets stored in our database for station/object N0HEQ. If no packets are shown the sender has not sent any weather packets the latest 10 day(s).
| Time | Temp. | Humidity | Pressure | Rain* | Wind** | Luminosity | Snow |
|---|---|---|---|---|---|---|---|
| 1777469043 | 6.67° C | 76% | 1022.5 hPa | 0 mm | - | 50 W/m² | - |
| 1777468738 | 6.67° C | 77% | 1022.2 hPa | 0 mm | - | 40 W/m² | - |
| 1777468434 | 6.11° C | 77% | 1022.3 hPa | 0 mm | - | 31 W/m² | - |
| 1777468130 | 6.11° C | 79% | 1022.2 hPa | 0 mm | - | 32 W/m² | - |
| 1777467827 | 6.11° C | 78% | 1022.3 hPa | 0 mm | - | 29 W/m² | - |
| 1777467522 | 6.11° C | 79% | 1022.3 hPa | 0 mm | - | 28 W/m² | - |
| 1777467218 | 5.56° C | 80% | 1022.1 hPa | 0 mm | - | 32 W/m² | - |
| 1777466915 | 5.56° C | 80% | 1022.1 hPa | 0 mm | - | 32 W/m² | - |
| 1777466613 | 5.56° C | 80% | 1022.2 hPa | 0 mm | - | 31 W/m² | - |
| 1777466309 | 5.56° C | 81% | 1022 hPa | 0 mm | - | 23 W/m² | - |
| 1777466006 | 5.56° C | 81% | 1022 hPa | 0 mm | - | 16 W/m² | - |
| 1777465701 | 5.56° C | 81% | 1022.1 hPa | 0 mm | - | 12 W/m² | - |
| 1777465397 | 5.56° C | 81% | 1022.2 hPa | 0 mm | - | 9 W/m² | - |
| 1777465096 | 5.56° C | 81% | 1022.2 hPa | 0 mm | - | 6 W/m² | - |
| 1777464792 | 5.56° C | 81% | 1022.2 hPa | 0 mm | - | 3 W/m² | - |
| 1777464488 | 5.56° C | 82% | 1022.1 hPa | 0 mm | - | 2 W/m² | - |
| 1777464184 | 5.56° C | 82% | 1022.2 hPa | 0 mm | - | 1 W/m² | - |
| 1777463884 | 5.56° C | 82% | 1022.2 hPa | 0 mm | - | 1 W/m² | - |
| 1777463580 | 5.56° C | 82% | 1022.5 hPa | 0 mm | - | 0 W/m² | - |
| 1777463280 | 5.56° C | 82% | 1022.5 hPa | 0 mm | - | 0 W/m² | - |
| 1777462977 | 5.56° C | 82% | 1022.2 hPa | 0 mm | - | 0 W/m² | - |
| 1777462673 | 5.56° C | 82% | 1022.5 hPa | 0 mm | - | 0 W/m² | - |
| 1777462368 | 5.56° C | 82% | 1022.5 hPa | 0 mm | - | 0 W/m² | - |
| 1777462064 | 5.56° C | 82% | 1022.6 hPa | 0 mm | - | 0 W/m² | - |
| 1777461762 | 5.56° C | 83% | 1022.7 hPa | 0 mm | - | 0 W/m² | - |
* Rain latest hour (hover to see other rain measurements)
** Current wind speed in m/s (hover to see current wind gust speed)